Regional Weather Roundup
Issued by NWS Bismarck, ND

Home | Current Version | Previous Version | Text Only | Print | Product List | Glossary On
Versions: 1 2 3 4 5 6 7 8 9 10 11 12 13 14 15 16 17 18 19 20 21 22 23 24 25 26 27 28 29 30 31 32 33 34 35 36 37 38 39 40 41 42 43 44 45 46 47 48 49 50
000
ASUS43 KBIS 280402
RWRBIS

NWR BROADCAST TEXT
NATIONAL WEATHER SERVICE BISMARCK ND
1100 PM CDT FRI MAY 27 2016

NOTE: "FAIR" INDICATES FEW OR NO CLOUDS BELOW 12,000 FEET WITH NO
SIGNIFICANT WEATHER AND/OR OBSTRUCTIONS TO VISIBILITY.


CITY           SKY/WX    TMP DP  RH WIND       PRES   REMARKS
WILLISTON      PTCLDY    58  53  84 NE7       29.86R
MINOT          CLOUDY    59  55  87 N6        29.87R
MINOT AFB      NOT AVBL
BISMARCK       MOCLDY    60  51  72 NE6       29.82R
DICKINSON      CLEAR     52  44  74 E5        29.84R
GARRISON         N/A     58  52  80 NE5       29.84R
HETTINGER ARPT CLEAR     44  41  89 CALM      29.85R
JAMESTOWN      CLOUDY    62  56  80 CALM      29.79R
CARRINGTON     FAIR      61  54  77 N7        29.84R
HAZEN          CLOUDY    54  50  87 CALM      29.85S
MANDAN         FAIR      59  50  72 NE6       29.83S
OAKES            N/A    N/A N/A N/A MISG        N/A
STANLEY        CLOUDY    55  55 100 NE7       29.90R
$$

CITY           SKY/WX    TMP DP  RH WIND       PRES   REMARKS
GRAND FORKS    CLOUDY    64  59  83 E9        29.79R
GRAND FORKS AF NOT AVBL
DEVILS LAKE    MOCLDY    60  57  89 NE12      29.84R
FARGO          CLOUDY    63  59  87 NE7       29.78S
CAVALIER       MOCLDY    59  59 100 N9        29.83S
GRAFTON        FAIR      61  61 100 NW6       29.82R
GWINNER        MOCLDY    61  59  94 NE6       29.78R
LANGDON        CLOUDY    57  57 100 NE13G22   29.86R
$$

CITY           SKY/WX    TMP DP  RH WIND       PRES   REMARKS
ABERDEEN       CLOUDY    61  57  87 CALM      29.78R
MOBRIDGE       CLOUDY    57  50  77 NE5       29.79R
BUFFALO          N/A     58  46  64 SE6       29.79R
RAPID CITY     CLOUDY    54  47  77 W5        29.86R
GLASGOW        CLOUDY    59  50  72 E10       29.84R
SIDNEY         CLOUDY    57  52  82 N9        29.85R
WOLF POINT     CLEAR     56  51  84 NE5       29.85R
GLENDIVE       PTCLDY    55  48  76 NE7       29.86S
MILES CITY     CLEAR     60  47  61 E3        29.83R
BAKER          PTCLDY    52  45  77 CALM      29.85R
$$

CITY           SKY/WX    TMP DP  RH WIND       PRES   REMARKS
BILLINGS       CLOUDY    54  48  80 W8        29.89R
GREAT FALLS    CLOUDY    51  44  77 E6        29.93R
$$




USA.gov is the U.S. government's official web portal to all federal, state and local government web resources and services.